This is the latest recevied weather packets stored in our database for station/object IU5JAE-13. If no packets are shown the sender has not sent any weather packets the latest 10 day(s).
| Time | Temp. | Humidity | Pressure | Rain* | Wind** | Luminosity | Snow |
|---|---|---|---|---|---|---|---|
| 1778068530 | 13.89° C | 96% | 1009.9 hPa | 4.06 mm | - | 175 W/m² | - |
| 1778067928 | 12.78° C | 96% | 1010 hPa | 4.06 mm | - | 295 W/m² | - |
| 1778067325 | 13.33° C | 98% | 1010.1 hPa | 2.79 mm | - | 81 W/m² | - |
| 1778066723 | 13.89° C | 99% | 1009.9 hPa | 2.79 mm | - | 97 W/m² | - |
| 1778066121 | 13.89° C | 99% | 1009.7 hPa | 6.86 mm | - | 26 W/m² | - |
| 1778065518 | 13.89° C | 99% | 1009.8 hPa | 7.62 mm | - | 132 W/m² | - |
| 1778064916 | 13.89° C | 99% | 1009.8 hPa | 7.62 mm | - | 177 W/m² | - |
| 1778064333 | 13.89° C | 99% | 1009.9 hPa | 7.62 mm | - | 39 W/m² | - |
| 1778063731 | 13.33° C | 99% | 1009.8 hPa | 7.62 mm | - | 64 W/m² | - |
| 1778063129 | 12.78° C | 99% | 1010 hPa | 6.6 mm | - | 63 W/m² | - |
| 1778062526 | 13.33° C | 99% | 1010 hPa | 2.29 mm | - | 59 W/m² | - |
| 1778061924 | 13.89° C | 99% | 1009.9 hPa | 0.51 mm | - | 36 W/m² | - |
| 1778061321 | 13.89° C | 99% | 1009.8 hPa | 0.51 mm | - | 87 W/m² | - |
| 1778060719 | 13.89° C | 99% | 1009.8 hPa | 0.25 mm | - | 122 W/m² | - |
| 1778060117 | 13.33° C | 99% | 1009.7 hPa | 0.51 mm | - | 98 W/m² | - |
| 1778059534 | 13.33° C | 99% | 1009.6 hPa | 0.51 mm | - | 72 W/m² | - |
| 1778058932 | 13.33° C | 99% | 1009.7 hPa | 0.25 mm | - | 67 W/m² | - |
| 1778058329 | 13.33° C | 99% | 1009.5 hPa | 0.25 mm | - | 40 W/m² | - |
| 1778057727 | 13.33° C | 99% | 1009.4 hPa | 0.25 mm | - | 65 W/m² | - |
| 1778057125 | 12.78° C | 99% | 1009.4 hPa | 0.25 mm | - | 30 W/m² | - |
| 1778056522 | 12.78° C | 99% | 1009.8 hPa | 0 mm | - | 19 W/m² | - |
| 1778055920 | 12.78° C | 99% | 1009.7 hPa | 0.25 mm | - | 26 W/m² | - |
| 1778055317 | 12.78° C | 99% | 1009.8 hPa | 0.51 mm | - | 22 W/m² | - |
| 1778054735 | 12.78° C | 99% | 1009.7 hPa | 0.51 mm | - | 21 W/m² | - |
| 1778054133 | 12.78° C | 99% | 1009.8 hPa | 1.52 mm | - | 20 W/m² | - |
* Rain latest hour (hover to see other rain measurements)
** Current wind speed in m/s (hover to see current wind gust speed)